Regional Weather Roundup
Issued by NWS Little Rock, AR

Home | Current Version | Previous Version | Graphics & Text | Print | Product List | Glossary On
Versions: 1 2 3 4 5 6 7 8 9 10 11 12 13 14 15 16 17 18 19 20 21 22 23 24 25 26 27
000
ASUS44 KLZK 230405
RWRLZK

WEATHER ROUNDUP FOR ARKANSAS
NATIONAL WEATHER SERVICE LITTLE ROCK AR
1100 PM CDT TUE APR 22 2014

NOTE: "FAIR" INDICATES FEW OR NO CLOUDS BELOW 12,000 FEET WITH NO
SIGNIFICANT WEATHER AND/OR OBSTRUCTIONS TO VISIBILITY.

ARZ001-003-010-029-230500-
NORTHWEST ARKANSAS

CITY           SKY/WX    TMP DP  RH WIND       PRES   REMARKS
FAYETTEVILLE   PTCLDY    48  44  86 CALM      30.01R
FORT SMITH     CLEAR     61  42  49 CALM      29.96S
HARRISON       CLEAR     54  37  52 W6        30.01R
BENTONVILLE    PTCLDY    54  39  58 CALM      30.02S
ROGERS         CLEAR     56  39  53 NE3       30.02R
SILOAM SPGS    PTCLDY    55  37  50 E6        30.01S
HIGHFILL       PTCLDY    54  40  59 N3        30.01R
$$

ARZ004-005-016-230500-
NORTH CENTRAL ARKANSAS

CITY           SKY/WX    TMP DP  RH WIND       PRES   REMARKS
BATESVILLE     CLEAR     57  41  54 NW5       29.95F
FLIPPIN        CLEAR     55  36  47 CALM      29.99R
MTN HOME       CLEAR     61  33  35 NE3       29.98S
$$

ARZ040-041-230500-
WEST CENTRAL ARKANSAS

CITY           SKY/WX    TMP DP  RH WIND       PRES   REMARKS
MENA           CLEAR     54  54 100 CALM      29.99R
MOUNT IDA      CLEAR     55  51  86 CALM      29.95R
$$

ARZ009-017-025-026-028-230500-
NORTHEAST ARKANSAS

CITY           SKY/WX    TMP DP  RH WIND       PRES   REMARKS
CORNING        FAIR      59  41  51 NE8       29.99S
JONESBORO      CLEAR     59  43  55 NE6       29.97R
NEWPORT        CLEAR     64  48  56 N9        29.96F
WALNUT RIDGE   CLEAR     61  43  51 NE9       29.97S
BLYTHEVILLE    CLEAR     53  44  71 NE5       29.97R
$$

ARZ022-023-033-042-044-230500-
CENTRAL ARKANSAS

CITY           SKY/WX    TMP DP  RH WIND       PRES   REMARKS
LITTLE ROCK    CLEAR     62  46  55 CALM      29.96R
N LITTLE ROCK  CLEAR     63  42  45 E2        29.96R
JACKSONVILLE   CLEAR     55  48  77 CALM      29.96S
SEARCY         CLEAR     59  42  53 N5        29.96S
HOT SPRINGS    CLEAR     57  50  77 E6        29.96R
RUSSELLVILLE   CLEAR     55  44  66 CALM      29.97R
CLINTON        FAIR      52  46  82 CALM      29.98S
$$

ARZ036-230500-
EAST ARKANSAS

CITY           SKY/WX    TMP DP  RH WIND       PRES   REMARKS
WEST MEMPHIS   CLEAR     57  49  74 CALM      29.95S HAZE
$$

ARZ050-053-066-070-073-230500-
SOUTHWEST ARKANSAS

CITY           SKY/WX    TMP DP  RH WIND       PRES   REMARKS
ARKADELPHIA    FAIR      61  57  86 CALM      29.96R
CAMDEN         CLEAR     57  55  94 MISG      29.95S FOG
TEXARKANA      CLEAR     64  52  64 CALM      29.94S
EL DORADO      CLEAR     60  58  92 CALM      29.95R
DE QUEEN       CLEAR     57  55  93 CALM      29.94R
$$

ARZ056-057-069-230500-
SOUTHEAST ARKANSAS

CITY           SKY/WX    TMP DP  RH WIND       PRES   REMARKS
PINE BLUFF     CLEAR     62  51  67 CALM      29.96R
STUTTGART      CLEAR     64  48  55 SE5       29.96S
MONTICELLO     CLEAR     57  54  89 CALM      29.95R

$$





USA.gov is the U.S. government's official web portal to all federal, state and local government web resources and services.